When you browse on this site, cookies collect data to enhance your experience and personalize the content and advertising you see.
Visit our Privacy Policy to learn more. By continuing to use the site, you agree to this use of cookies and data.
  • în România
  • Lista ţărilor
  • Pe 7 zile
  • Temperatura apei
  • Meteo pe hartă
  • Widget-uri
  • user-avatar
    Intrare

    Meteo pe oră la Sochaczew

    Astăzi, 21 August, Miercuri

    Timp Temperatura Precipitaţii Vânt Presiune Umiditate
    00:00 +20°C° 0.3 mm 4 m/s 757 mmHg 67%
    01:00 +19°C° 0 mm 4 m/s 757 mmHg 79%
    02:00 +19°C° 1.3 mm 4 m/s 757 mmHg 84%
    03:00 +17°C° 1.3 mm 5 m/s 757 mmHg 89%
    04:00 +17°C° 1.3 mm 5 m/s 757 mmHg 93%
    05:00 +16°C° 0.5 mm 6 m/s 757 mmHg 91%
    06:00 +16°C° 0.5 mm 6 m/s 757 mmHg 88%
    07:00 +16°C° 0.5 mm 7 m/s 758 mmHg 86%
    08:00 +16°C° 0.1 mm 6 m/s 759 mmHg 85%
    09:00 +15°C° 0.1 mm 5 m/s 759 mmHg 84%
    10:00 +15°C° 0.1 mm 4 m/s 760 mmHg 84%
    11:00 +17°C° 0 mm 4 m/s 760 mmHg 81%
    12:00 +18°C° 0 mm 3 m/s 761 mmHg 78%
    13:00 +19°C° 0 mm 3 m/s 762 mmHg 76%
    14:00 +19°C° 0 mm 3 m/s 762 mmHg 72%
    15:00 +20°C° 0 mm 3 m/s 762 mmHg 69%
    16:00 +21°C° 0 mm 3 m/s 762 mmHg 65%
    17:00 +20°C° 0.1 mm 3 m/s 762 mmHg 70%
    18:00 +19°C° 0.1 mm 2 m/s 762 mmHg 75%
    19:00 +17°C° 0.1 mm 2 m/s 762 mmHg 80%
    20:00 +18°C° 0 mm 1 m/s 762 mmHg 82%
    21:00 +16°C° 0 mm 1 m/s 763 mmHg 84%
    22:00 +14°C° 0 mm 0 m/s 763 mmHg 87%
    23:00 +14°C° 0 mm 0 m/s 763 mmHg 87%

    Mâine, 22 August, Joi

    Timp Temperatura Precipitaţii Vânt Presiune Umiditate
    00:00 +14°C° 0 mm 0 m/s 763 mmHg 88%
    01:00 +15°C° 0 mm 1 m/s 764 mmHg 89%
    02:00 +14°C° 0 mm 1 m/s 763 mmHg 89%
    03:00 +13°C° 0 mm 0 m/s 763 mmHg 90%
    04:00 +13°C° 0 mm 0 m/s 763 mmHg 91%
    05:00 +14°C° 0 mm 0 m/s 763 mmHg 87%
    06:00 +16°C° 0 mm 1 m/s 764 mmHg 83%
    07:00 +18°C° 0 mm 1 m/s 764 mmHg 79%
    08:00 +19°C° 0 mm 1 m/s 764 mmHg 74%
    09:00 +21°C° 0 mm 1 m/s 764 mmHg 68%
    10:00 +21°C° 0 mm 2 m/s 764 mmHg 62%
    11:00 +23°C° 0 mm 2 m/s 764 mmHg 58%
    12:00 +24°C° 0 mm 2 m/s 764 mmHg 54%
    13:00 +24°C° 0 mm 2 m/s 763 mmHg 49%
    14:00 +24°C° 0 mm 2 m/s 763 mmHg 49%
    15:00 +24°C° 0 mm 2 m/s 763 mmHg 49%
    16:00 +24°C° 0 mm 2 m/s 763 mmHg 48%
    17:00 +23°C° 0 mm 2 m/s 763 mmHg 53%
    18:00 +20°C° 0 mm 2 m/s 763 mmHg 58%
    19:00 +19°C° 0 mm 2 m/s 762 mmHg 63%
    20:00 +18°C° 0 mm 2 m/s 763 mmHg 65%
    21:00 +17°C° 0 mm 2 m/s 763 mmHg 67%
    22:00 +17°C° 0 mm 2 m/s 763 mmHg 69%
    23:00 +16°C° 0 mm 2 m/s 763 mmHg 71%

    Poimâine, 23 August, Vineri

    Timp Temperatura Precipitaţii Vânt Presiune Umiditate
    00:00 +16°C° 0 mm 2 m/s 763 mmHg 72%
    01:00 +15°C° 0 mm 2 m/s 763 mmHg 73%
    02:00 +15°C° 0 mm 2 m/s 763 mmHg 75%
    03:00 +15°C° 0 mm 2 m/s 763 mmHg 77%
    04:00 +14°C° 0 mm 2 m/s 763 mmHg 79%
    05:00 +15°C° 0 mm 2 m/s 763 mmHg 75%
    06:00 +17°C° 0 mm 2 m/s 763 mmHg 72%
    07:00 +18°C° 0 mm 2 m/s 763 mmHg 69%
    08:00 +20°C° 0 mm 2 m/s 763 mmHg 62%
    09:00 +21°C° 0 mm 3 m/s 763 mmHg 56%
    10:00 +24°C° 0 mm 3 m/s 763 mmHg 49%
    11:00 +25°C° 0 mm 3 m/s 763 mmHg 45%
    12:00 +26°C° 0 mm 3 m/s 763 mmHg 41%
    13:00 +27°C° 0 mm 3 m/s 762 mmHg 37%
    14:00 +27°C° 0 mm 3 m/s 762 mmHg 38%
    15:00 +27°C° 0 mm 3 m/s 762 mmHg 39%
    16:00 +27°C° 0 mm 3 m/s 762 mmHg 40%
    17:00 +25°C° 0 mm 3 m/s 761 mmHg 46%
    18:00 +22°C° 0 mm 3 m/s 761 mmHg 51%
    19:00 +20°C° 0 mm 3 m/s 761 mmHg 57%
    20:00 +19°C° 0 mm 3 m/s 761 mmHg 59%
    21:00 +18°C° 0 mm 3 m/s 762 mmHg 61%
    22:00 +18°C° 0 mm 3 m/s 762 mmHg 64%
    23:00 +17°C° 0 mm 3 m/s 762 mmHg 67%

    24 August, Sâmbătă

    Timp Temperatura Precipitaţii Vânt Presiune Umiditate
    00:00 +16°C° 0 mm 2 m/s 761 mmHg 71%
    01:00 +16°C° 0 mm 2 m/s 761 mmHg 74%
    02:00 +16°C° 0 mm 2 m/s 761 mmHg 76%
    03:00 +15°C° 0 mm 2 m/s 761 mmHg 77%
    04:00 +15°C° 0 mm 2 m/s 761 mmHg 79%
    05:00 +16°C° 0 mm 3 m/s 761 mmHg 75%
    06:00 +17°C° 0 mm 3 m/s 761 mmHg 71%
    07:00 +18°C° 0 mm 3 m/s 761 mmHg 68%
    08:00 +20°C° 0 mm 3 m/s 761 mmHg 62%
    09:00 +22°C° 0 mm 4 m/s 761 mmHg 57%
    10:00 +23°C° 0 mm 4 m/s 761 mmHg 52%
    11:00 +25°C° 0 mm 4 m/s 760 mmHg 49%
    12:00 +26°C° 0 mm 4 m/s 760 mmHg 46%
    13:00 +27°C° 0 mm 4 m/s 760 mmHg 43%
    14:00 +27°C° 0 mm 4 m/s 759 mmHg 43%
    15:00 +27°C° 0 mm 4 m/s 759 mmHg 43%
    16:00 +27°C° 0 mm 3 m/s 759 mmHg 44%
    17:00 +25°C° 0 mm 3 m/s 759 mmHg 49%
    18:00 +22°C° 0 mm 3 m/s 759 mmHg 54%
    19:00 +20°C° 0 mm 3 m/s 759 mmHg 59%
    20:00 +20°C° 0 mm 3 m/s 759 mmHg 60%
    21:00 +19°C° 0 mm 3 m/s 759 mmHg 62%
    22:00 +18°C° 0 mm 3 m/s 759 mmHg 64%
    23:00 +18°C° 0 mm 3 m/s 759 mmHg 65%

    25 August, Duminică

    Timp Temperatura Precipitaţii Vânt Presiune Umiditate
    00:00 +17°C° 0 mm 3 m/s 759 mmHg 67%
    01:00 +17°C° 0 mm 3 m/s 759 mmHg 69%
    02:00 +16°C° 0 mm 3 m/s 759 mmHg 70%
    03:00 +16°C° 0 mm 3 m/s 759 mmHg 72%
    04:00 +16°C° 0 mm 3 m/s 759 mmHg 73%
    05:00 +17°C° 0 mm 3 m/s 759 mmHg 71%
    06:00 +18°C° 0 mm 3 m/s 759 mmHg 69%
    07:00 +19°C° 0 mm 4 m/s 759 mmHg 67%
    08:00 +20°C° 0 mm 4 m/s 759 mmHg 62%
    09:00 +22°C° 0 mm 4 m/s 759 mmHg 57%
    10:00 +25°C° 0 mm 4 m/s 759 mmHg 53%
    11:00 +26°C° 0 mm 4 m/s 759 mmHg 51%
    12:00 +27°C° 0 mm 4 m/s 759 mmHg 50%
    13:00 +28°C° 0 mm 4 m/s 758 mmHg 48%
    14:00 +28°C° 0 mm 4 m/s 758 mmHg 48%
    15:00 +28°C° 0 mm 4 m/s 758 mmHg 49%
    16:00 +28°C° 0 mm 4 m/s 758 mmHg 49%
    17:00 +26°C° 0 mm 4 m/s 758 mmHg 54%
    18:00 +23°C° 0 mm 4 m/s 758 mmHg 59%
    19:00 +22°C° 0 mm 4 m/s 758 mmHg 64%
    20:00 +21°C° 0 mm 4 m/s 758 mmHg 66%
    21:00 +20°C° 0 mm 4 m/s 758 mmHg 68%
    22:00 +20°C° 0 mm 4 m/s 758 mmHg 71%
    23:00 +19°C° 0 mm 4 m/s 758 mmHg 73%

    26 August, Luni

    Timp Temperatura Precipitaţii Vânt Presiune Umiditate
    00:00 +18°C° 0 mm 3 m/s 758 mmHg 76%
    01:00 +18°C° 0 mm 3 m/s 758 mmHg 79%
    02:00 +17°C° 0 mm 3 m/s 758 mmHg 81%
    03:00 +17°C° 0 mm 3 m/s 757 mmHg 83%
    04:00 +16°C° 0 mm 3 m/s 757 mmHg 85%
    05:00 +17°C° 0 mm 3 m/s 757 mmHg 83%
    06:00 +19°C° 0 mm 3 m/s 757 mmHg 80%
    07:00 +20°C° 0 mm 4 m/s 757 mmHg 78%
    08:00 +22°C° 0 mm 4 m/s 757 mmHg 73%
    09:00 +23°C° 0 mm 4 m/s 756 mmHg 67%
    10:00 +26°C° 0 mm 4 m/s 756 mmHg 62%
    11:00 +28°C° 0 mm 4 m/s 756 mmHg 58%
    12:00 +29°C° 0 mm 4 m/s 756 mmHg 54%
    13:00 +30°C° 0 mm 3 m/s 755 mmHg 49%
    14:00 +30°C° 0 mm 3 m/s 755 mmHg 49%
    15:00 +30°C° 0 mm 3 m/s 755 mmHg 49%
    16:00 +30°C° 0 mm 3 m/s 754 mmHg 48%
    17:00 +29°C° 0 mm 3 m/s 754 mmHg 54%
    18:00 +27°C° 0 mm 3 m/s 754 mmHg 60%
    19:00 +25°C° 0 mm 3 m/s 754 mmHg 65%
    20:00 +25°C° 0 mm 3 m/s 754 mmHg 69%
    21:00 +24°C° 0 mm 3 m/s 754 mmHg 72%
    22:00 +22°C° 0 mm 3 m/s 754 mmHg 76%
    23:00 +22°C° 0.3 mm 3 m/s 754 mmHg 78%
    Arată mai mult